Weather History for Rennes, France

Change the Weather History Date:

Friday, January 11, 2013

  Actual Average Record
Temperature  
Mean Temperature 46 °F -  
Max Temperature 53 °F 47 °F 55 °F (1998)
Min Temperature 39 °F 36 °F 19 °F (2009)
Degree Days  
Heating Degree Days 19    
Moisture  
Dew Point 40 °F    
Average Humidity 84    
Maximum Humidity 93    
Minimum Humidity 66    
Precipitation  
Precipitation 0.00 in - - ()
Sea Level Pressure  
Sea Level Pressure 30.10 in    
Wind  
Wind Speed 7 mph ()    
Max Wind Speed 13 mph    
Max Gust Speed -    
Visibility 6.3 miles    
Events Rain    
Averages and records for this station are not official NWS values.
T = Trace of Precipitation, MM = Missing Value Source: Averaged Metar Reports

Daily Weather History Graph

Daily Weather History Graph

Search for Another Location

Airport:

Trip Planner

Search our weather history database for the weather conditions in past years. The results will help you decide how hot, cold, wet, or windy it might be!

Date:

Astronomy

Jan. 11, 2013 Rise Set
Actual Time 8:54 AM CET 5:35 PM CET
Civil Twilight 8:18 AM CET 6:11 PM CET
Nautical Twilight 7:39 AM CET 6:50 PM CET
Astronomical Twilight 7:02 AM CET 7:27 PM CET
Moon 8:12 AM CET (1/11) 5:40 PM CET (1/11)
Length of Visible Light 9h 52m
Length of Day
8h 41m
Waning Crescent, 0% of the Moon is Illuminated
Jan 11
Waning Crescent
Jan 11
New
Jan 19
First Quarter
Jan 27
Full
Feb 3
Last Quarter

Hourly Weather History & Observations

Time (CET) Temp. Windchill Dew Point Humidity Pressure Visibility Wind Dir Wind Speed Gust Speed Precip Events Conditions
12:00 AM 44.6 °F 38.4 °F 39.2 °F 81% 30.09 in 6.2 mi WNW 12.7 mph - N/A   Partly Cloudy
12:30 AM 42.8 °F 37.0 °F 39.2 °F 87% 30.09 in 6.2 mi West 10.4 mph - N/A   Unknown
1:00 AM 42 °F - 38 °F 82% 30.12 in 12 mi West 9.2 mph - -   Clear
1:00 AM 42.8 °F 37.5 °F 39.2 °F 87% 30.09 in 6.2 mi West 9.2 mph - N/A   Unknown
1:30 AM 42.8 °F 37.5 °F 39.2 °F 87% 30.12 in 6.2 mi West 9.2 mph - N/A   Mostly Cloudy
2:00 AM 42.8 °F 36.6 °F 39.2 °F 87% 30.12 in 6.2 mi West 11.5 mph - N/A   Partly Cloudy
2:30 AM 41.0 °F 33.9 °F 37.4 °F 87% 30.12 in 6.2 mi West 12.7 mph - N/A   Unknown
3:00 AM 41.0 °F 34.7 °F 37.4 °F 87% 30.12 in 6.2 mi West 10.4 mph - N/A   Unknown
3:30 AM 41.0 °F 34.7 °F 37.4 °F 87% 30.12 in 6.2 mi West 10.4 mph - N/A   Unknown
4:00 AM 41.0 °F 35.2 °F 37.4 °F 87% 30.12 in 6.2 mi West 9.2 mph - N/A   Mostly Cloudy
4:30 AM 41.0 °F 35.8 °F 37.4 °F 87% 30.12 in 6.2 mi West 8.1 mph - N/A   Partly Cloudy
5:00 AM 41.0 °F 35.8 °F 39.2 °F 93% 30.12 in 6.2 mi West 8.1 mph - N/A   Unknown
5:30 AM 41.0 °F 34.7 °F 37.4 °F 87% 30.12 in 6.2 mi West 10.4 mph - N/A   Unknown
6:00 AM 41.0 °F 35.8 °F 39.2 °F 93% 30.15 in 6.2 mi West 8.1 mph - N/A   Scattered Clouds
6:30 AM 42.8 °F 38.0 °F 39.2 °F 87% 30.15 in 6.2 mi WNW 8.1 mph - N/A   Overcast
7:00 AM 41 °F - 38 °F 86% 30.17 in 12 mi West 6.9 mph - -   Clear
7:00 AM 41.0 °F 36.4 °F 39.2 °F 93% 30.15 in 6.2 mi West 6.9 mph - N/A   Mostly Cloudy
7:30 AM 41.0 °F 37.1 °F 39.2 °F 93% 30.15 in 6.2 mi West 5.8 mph - N/A   Mostly Cloudy
8:00 AM 41.0 °F 38.0 °F 37.4 °F 87% 30.15 in 6.2 mi West 4.6 mph - N/A   Mostly Cloudy
8:30 AM 39.2 °F 37.0 °F 37.4 °F 93% 30.15 in 6.2 mi WSW 3.5 mph - N/A   Partly Cloudy
9:00 AM 39.2 °F 35.0 °F 37.4 °F 93% 30.18 in 6.2 mi WSW 5.8 mph - N/A   Scattered Clouds
9:30 AM 39.2 °F 37.0 °F 37.4 °F 93% 30.15 in 6.2 mi WSW 3.5 mph - N/A   Unknown
10:00 AM 41.0 °F 38.0 °F 39.2 °F 93% 30.18 in 6.2 mi WSW 4.6 mph - N/A   Unknown
10:30 AM 42.8 °F 40.1 °F 39.2 °F 87% 30.18 in 6.2 mi West 4.6 mph - N/A   Scattered Clouds
11:00 AM 44.6 °F 42.2 °F 41.0 °F 87% 30.18 in 6.2 mi West 4.6 mph - N/A   Unknown
11:30 AM 46.4 °F 45.2 °F 41.0 °F 81% 30.15 in 6.2 mi Variable 3.5 mph - N/A   Unknown
12:00 PM 48.2 °F - 42.8 °F 82% 30.15 in 6.2 mi West 4.6 mph - N/A   Unknown
12:30 PM 50.0 °F - 42.8 °F 76% 30.15 in 6.2 mi Variable 3.5 mph - N/A   Unknown
1:00 PM 51 °F - 43 °F 66% 30.15 in 2 mi WSW 2.3 mph - -   Mist
1:00 PM 51.8 °F - 42.8 °F 71% 30.12 in 3.7 mi Variable 2.3 mph - N/A   Unknown
1:30 PM 51.8 °F - 42.8 °F 71% 30.12 in 6.2 mi Variable 3.5 mph - N/A   Unknown
2:00 PM 51.8 °F - 42.8 °F 71% 30.12 in 6.2 mi SW 4.6 mph - N/A   Unknown
2:30 PM 53.6 °F - 42.8 °F 67% 30.09 in 6.2 mi Variable 2.3 mph - N/A   Mostly Cloudy
3:00 PM 50.0 °F - 42.8 °F 76% 30.09 in 6.2 mi West 3.5 mph - N/A   Mostly Cloudy
3:30 PM 50.0 °F - 42.8 °F 76% 30.09 in 6.2 mi Variable 2.3 mph - N/A   Overcast
4:00 PM 50.0 °F - 42.8 °F 76% 30.09 in 6.2 mi South 3.5 mph - N/A   Mostly Cloudy
4:30 PM 50.0 °F - 42.8 °F 76% 30.09 in 6.2 mi SE 1.2 mph - N/A   Mostly Cloudy
5:00 PM 50.0 °F - 42.8 °F 76% 30.06 in 6.2 mi SSW 2.3 mph - N/A   Overcast
5:30 PM 48.2 °F - 42.8 °F 82% 30.06 in 6.2 mi South 3.5 mph - N/A   Overcast
6:00 PM 48.2 °F - 42.8 °F 82% 30.06 in 6.2 mi SSE 3.5 mph - N/A   Overcast
6:30 PM 48.2 °F - 42.8 °F 82% 30.06 in 6.2 mi South 4.6 mph - N/A   Overcast
7:00 PM 48.2 °F - 42.8 °F 82% 30.06 in 6.2 mi SSW 4.6 mph - N/A   Overcast
7:30 PM 48.2 °F - 42.8 °F 82% 30.04 in 6.2 mi South 4.6 mph - N/A   Overcast
8:00 PM 44.6 °F 42.2 °F 41.0 °F 87% 30.04 in 6.2 mi South 4.6 mph - N/A   Unknown
8:30 PM 44.6 °F 40.7 °F 41.0 °F 87% 30.04 in 6.2 mi South 6.9 mph - N/A   Unknown
9:00 PM 44.6 °F 41.4 °F 41.0 °F 87% 30.04 in 6.2 mi South 5.8 mph - N/A   Unknown
9:30 PM 46.4 °F 42.4 °F 42.8 °F 87% 30.01 in 6.2 mi South 8.1 mph - N/A Rain Light Rain
10:00 PM 44.6 °F 40.7 °F 42.8 °F 93% 30.01 in 6.2 mi SSE 6.9 mph - N/A   Overcast
10:30 PM 44.6 °F 41.4 °F 42.8 °F 93% 29.98 in 6.2 mi SE 5.8 mph - N/A   Unknown
11:00 PM 44.6 °F 40.7 °F 41.0 °F 87% 29.98 in 6.2 mi SE 6.9 mph - N/A   Partly Cloudy
11:30 PM 44.6 °F 40.7 °F 41.0 °F 87% 29.98 in 6.2 mi SE 6.9 mph - N/A   Mostly Cloudy